* Astronomy

Members Login
Post Info TOPIC: Comet P/2005 U1 = 2010 N2 (READ)


L

Posts: 131433
Date:
Comet P/2005 U1 = 2010 N2 (READ)
Permalink  
 


Orbital elements:
P/2005 U1 = 2010 N2 (Read)
Epoch 2005 July 9.0 TT = JDT 2453560.5
T 2005 July 27.88961 TT MPC
q 2.3647335 (2000.0) P Q
n 0.17507375 Peri. 325.78172 +0.95399499 -0.29932138
a 3.1646233 Node 51.64463 +0.27978833 +0.86798888
e 0.2527599 Incl. 1.26618 +0.10775919 +0.39623480
P 5.63

Epoch 2011 Mar. 20.0 TT = JDT 2455640.5
T 2011 Mar. 10.67735 TT MPC
q 2.3604259 (2000.0) P Q
n 0.17500980 Peri. 325.30765 +0.95646657 -0.29132724
a 3.1653943 Node 51.63920 +0.27251323 +0.87030042
e 0.2543027 Incl. 1.26601 +0.10444252 +0.39712166
P 5.63

MPEC 2010 - O44


__________________
Page 1 of 1  sorted by
 
Quick Reply

Please log in to post quick replies.



Create your own FREE Forum
Report Abuse
Powered by ActiveBoard